SPAINSAT

Last updated on Sun Jun 21 2026 00:03:03 GMT+0000 (Coordinated Universal Time)

1 28945U 06007A 26171.33795515 -.00000221 00000+0 00000+0 0 9990 2 28945 0.5725 86.4734 0004829 359.2835 274.2855 1.00272395 74248
UTC large
Height (km)
Speed (km/s)
/
Latitude / Longitude
Inclination (degrees)
Orbital Period (minutes)
Azimuth
Elevation
Range (km)
Doppler Factor

Next 0 passes for location: London (51.5072 / 0.1276)

No passes found over London.
SPAINSAT